Weather Roundup
Issued by NWS Springfield, MO

Home | Current Version | Previous Version | Text Only | Print | Product List | Glossary On
Versions: 1 2 3 4 5 6 7 8 9 10 11 12 13 14 15 16 17 18 19 20 21 22 23 24 25 26 27 28 29 30 31 32 33 34 35 36 37 38 39 40 41 42 43 44 45 46 47 48 49 50
000
NZUS99 KSGF 212107
HRRSGF

HOURLY WEATHER
NATIONAL WEATHER SERVICE SPRINGFIELD MO
400 PM CDT FRI JUL 21 2017

......SGF CWA......

CITY           SKY/WX    TMP DP  RH WIND       PRES   REMARKS
SPRINGFIELD    MOSUNNY   96  68  39 S17G23    29.97F HX 101
JOPLIN         MOSUNNY   99  70  38 S16G22    29.95F HX 106
WEST PLAINS    SUNNY     94  69  44 SW12      30.01F HX  99
ROLLA          SUNNY     94  73  50 S8        29.95F HX 103
OSAGE BEACH    MOSUNNY   99  69  37 W13       29.93F HX 105
BRANSON        MOSUNNY   95  70  43 S6        30.00F HX 101

......SURROUNDING SGF CWA......

CITY           SKY/WX    TMP DP  RH WIND       PRES   REMARKS
CHANUTE        SUNNY    100  71  39 S17G23    29.90F HX 108
PARSONS        SUNNY     96  73  47 S14G20    29.92F HX 105
COFFEYVILLE    SUNNY     98  73  44 S16G24    29.90F HX 108
EMPORIA        SUNNY    101  66  31 S21G26    29.86F HX 105
GROVE OK       SUNNY     97  73  46 SW12G17   29.96F HX 107
ROGERS AR      MOSUNNY   95  72  47 S14       30.01F HX 103
SILOAM SPRINGS MOSUNNY   95  70  43 SW13      29.98F HX 101
HARRISON AR    SUNNY     93  71  48 VRB7      30.01F HX 100
NEAR YELLVILLE SUNNY     97  70  41 S7        29.96F HX 103

......KANSAS AND MISSOURI......

CITY           SKY/WX    TMP DP  RH WIND       PRES   REMARKS
KANSAS CTY INT MOSUNNY   98  75  47 S17       29.86F HX 110
DOWNTOWN KC    SUNNY     97  75  49 S13G23    29.85F HX 109
COLUMBIA       MOSUNNY   98  71  41 S14       29.92F HX 106
SEDALIA        SUNNY     97  73  45 SW10G21   29.92F HX 107
ST JOSEPH      SUNNY     95  77  55 S16G25    29.82F HX 109
ST LOUIS       MOSUNNY  102  65  29 W12       29.91F HX 105
SPIRIT OF STL  MOSUNNY  100  62  28 W9        29.90F HX 101
KIRKSVILLE     SUNNY     95  76  53 S18G25    29.88F HX 108
WICHITA        MOSUNNY  104  62  25 SW16G25   29.86F HX 106
TOPEKA         SUNNY    100  73  41 S15G25    29.82F HX 110
OLATHE         SUNNY     93  76  57 S13       29.89F HX 105

......TENNESSEE......

CITY           SKY/WX    TMP DP  RH WIND       PRES   REMARKS
MEMPHIS        PTSUNNY   98  74  45 S6        29.98F HX 109
NASHVILLE      PTSUNNY   95  70  44 S5        29.99F HX 101

......ARKANSAS.......

CITY           SKY/WX    TMP DP  RH WIND       PRES   REMARKS
FAYETTEVILLE   SUNNY     92  72  51 S15       30.00F HX  99
FT SMITH       PTSUNNY   98  72  42 S8G18     29.95F HX 107
LITTLE ROCK    MOSUNNY   95  75  52 S8        29.96F HX 107

......OKLAHOMA.......

CITY           SKY/WX    TMP DP  RH WIND       PRES   REMARKS
TULSA          MOSUNNY  100  70  37 S13       29.89F HX 107
PONCA CITY     SUNNY    103  64  28 S9        29.87F HX 106
MCALESTER      MOSUNNY   95  75  52 S7        29.96F HX 107
OKLAHOMA CITY  PTSUNNY  101  60  25 SW6G21    29.92F HX 101

......IOWA............

CITY           SKY/WX    TMP DP  RH WIND       PRES   REMARKS
DES MOINES     PTSUNNY  100  70  37 S15G23    29.78S HX 107
QUAD CITIES    SUNNY     93  78  61 S12G20    29.83F HX 108

......ILLINOIS........

CITY           SKY/WX    TMP DP  RH WIND       PRES   REMARKS
QUINCY         SUNNY     97  71  42 S14       29.89F HX 104
CHICAGO        CLOUDY    86  70  58 S8        29.93S HX  90




USA.gov is the U.S. government's official web portal to all federal, state and local government web resources and services.